Flag for Norway Weather past 2 weeks in Asker, Norway

Now
68 °F

Partly sunny.


Feels Like: 68 °F
Forecast: 59 / 77 °F
Wind: No wind

Location: Oslo / Fornebu

Current Time: Jul 28, 2014 at 5:31:00 PM

Latest Report: Jul 28, 2014 at 4:50 PM


Visibility: N/A

Pressure: 29.98 "Hg

Humidity: 78%

Dew point: 61 °F

Location of AskerLocation

Historic Weather in Asker — Graph

°F

Asker temperature yesterday

Maximum temperature yesterday: 72 °F (at 2:50 PM)
Minimum temperature yesterday: 63 °F (at 11:20 PM)
Average temperature yesterday: 67 °F

Past Weeks' High & Low Weather Summary

 TemperatureHumidityPressure
High75 °F (Jul 20, 2:20 PM)100% (Jul 14, 3:50 AM)30.39 "Hg (Jul 14, 3:50 AM)
Low54 °F (Jul 18, 7:20 AM)47% (Jul 21, 12:20 AM)29.65 "Hg (Jul 15, 9:20 AM)
Average61 °F86%30.05 "Hg
* Reported Jul 13 4:20 PM — Jul 28 4:20 PM, Asker, Weather by CustomWeather, © 2014

Note: Actual official high and low records may vary slightly from our data, if they occured in-between our weather recording intervals... More about our weather records

Advertising

Asker weather history for previous 24 hours

 ConditionsComfort  
Time TempWeatherWind HumidityBarometerVisibility
4:20 PM
Jul 28
64 °FPartly sunny.2 mph88%29.98 "HgN/A
3:50 PM64 °FPartly sunny.2 mph88%29.98 "HgN/A
3:20 PM64 °FPartly sunny.3 mph88%29.98 "HgN/A
2:50 PM66 °FPartly sunny.5 mph83%29.98 "HgN/A
2:20 PM64 °FPartly sunny.2 mph88%29.98 "HgN/A
1:50 PM63 °FPartly sunny.1 mph88%29.98 "HgN/A
1:20 PM64 °FPartly sunny.2 mph83%29.98 "HgN/A
12:50 PM63 °FOvercast.3 mph88%29.98 "HgN/A
12:20 PM63 °FPartly sunny.5 mph88%29.98 "HgN/A
11:50 AM63 °FBroken clouds.5 mph88%29.98 "HgN/A
11:20 AM63 °FPartly sunny.6 mph88%29.98 "HgN/A
10:50 AM63 °FPartly sunny.8 mph88%29.98 "HgN/A
10:20 AM63 °FBroken clouds.9 mph88%29.98 "HgN/A
9:50 AM61 °FPartly sunny.9 mph94%29.98 "HgN/A
9:20 AM63 °FPartly sunny.9 mph88%29.98 "HgN/A
8:50 AM61 °FPartly sunny.9 mph94%29.98 "HgN/A
8:20 AM61 °FPartly sunny.8 mph94%29.98 "HgN/A
7:50 AM61 °FPartly sunny.9 mph94%29.98 "HgN/A
7:20 AM61 °FPartly sunny.8 mph94%29.98 "HgN/A
6:50 AM61 °FPartly sunny.8 mph94%29.98 "HgN/A
6:20 AM61 °FPartly sunny.8 mph94%29.95 "HgN/A
5:50 AM59 °FPartly sunny.9 mph100%29.95 "HgN/A
5:20 AM59 °FPassing clouds.10 mph100%29.95 "HgN/A
4:50 AM61 °FPassing clouds.10 mph94%29.95 "HgN/A
4:20 AM61 °FPassing clouds.9 mph100%29.95 "HgN/A
3:50 AM61 °FPassing clouds.12 mph100%29.95 "HgN/A
3:20 AM61 °FPassing clouds.10 mph100%29.95 "HgN/A
2:50 AM61 °FFog.9 mph100%29.95 "Hg2 mi
2:20 AM61 °FFog.10 mph100%29.95 "Hg0 mi
1:50 AM61 °FFog.12 mph100%29.95 "Hg0 mi
1:20 AM61 °FFog.10 mph100%29.95 "Hg0 mi
12:50 AM61 °FFog.9 mph100%29.95 "Hg0 mi
12:20 AM63 °FFog.10 mph100%29.95 "Hg0 mi
11:50 PM
Jul 27
63 °FPassing clouds.12 mph100%29.95 "HgN/A
11:20 PM63 °FPassing clouds.12 mph100%29.95 "HgN/A
10:50 PM64 °FMild.14 mph94%29.95 "HgN/A
10:20 PM66 °FMild.15 mph88%29.95 "HgN/A
9:50 PM64 °FPassing clouds.14 mph94%29.92 "HgN/A
9:20 PM66 °FMild.14 mph94%29.92 "HgN/A
8:50 PM66 °FMild.16 mph94%29.92 "HgN/A
8:20 PM64 °FMild.14 mph100%29.92 "HgN/A
7:50 PM66 °FMild.14 mph94%29.92 "HgN/A
7:20 PM66 °FMild.9 mph88%29.92 "HgN/A
6:50 PM68 °FMild.8 mph88%29.92 "HgN/A
6:20 PM70 °FMild.8 mph83%29.92 "HgN/A
5:50 PM72 °FPassing clouds.7 mph83%29.92 "HgN/A
5:20 PM68 °FPartly sunny.6 mph88%29.92 "HgN/A
Weather by CustomWeather, © 2014

See weather overviewHow to use our weather pages